Vorticity
11 11 15 13 12 11 9 10 10 11 14 12 10 7 8 14 14 13 8 10 11 12 11 11 12 12 13 12 12 14 13 15 20 15 27 15 22 13 14 17 31 8 -16
10 13 15 12 11 9 9 10 11 14 12 9 8 11 9 7 6 7 11 12 12 10 10 12 12 14 14 12 12 16 13 15 19 20 27 21 16 16 10 4 -9 28 23
11 15 13 11 9 8 9 11 12 13 9 8 10 4 7 8 8 12 13 13 12 11 12 13 12 14 15 15 13 17 11 13 17 19 25 22 16 21 25 9 11 -15 31
12 15 13 10 8 8 10 11 14 11 7 9 6 7 6 8 10 13 14 16 15 15 14 15 12 13 14 14 16 16 13 12 15 17 20 19 15 20 21 3 -13 10 29
16 14 11 9 8 9 10 11 14 10 7 9 6 7 6 6 11 14 17 15 17 16 16 15 14 13 12 13 17 15 14 11 12 19 17 17 15 16 25 -2 1 -14 47
17 12 10 8 8 9 10 12 13 8 7 9 6 6 7 7 14 16 15 16 16 15 16 16 15 15 13 15 16 15 13 12 12 18 16 15 16 15 26 25 19 -1 44
13 11 9 8 8 10 10 13 13 9 7 9 6 6 7 8 18 13 15 18 17 16 15 16 15 14 15 15 15 17 13 13 13 18 17 14 15 10 25 8 16 18 -5
11 10 8 8 9 10 10 13 14 11 7 9 7 6 8 8 20 11 13 17 17 17 16 15 15 13 13 13 14 18 15 18 14 17 19 18 16 14 16 14 6 -8 -3
11 8 8 8 9 10 10 11 14 12 9 9 7 8 8 8 20 10 10 12 14 16 15 16 15 14 12 12 14 15 13 18 14 17 26 14 18 17 25 20 22 17 6
10 8 8 9 9 9 10 10 11 12 11 9 9 9 9 8 19 13 11 11 14 11 13 14 16 15 14 13 16 14 14 12 19 12 16 31 22 18 22 27 18 24 18
9 8 8 9 9 9 10 10 12 13 13 11 10 10 9 8 18 15 13 12 13 12 14 14 14 15 14 13 14 13 11 11 12 15 11 14 24 29 21 17 23 16 16
8 8 9 9 9 9 10 10 13 16 19 15 11 11 9 8 17 15 10 12 9 13 14 13 15 15 14 13 12 11 11 12 12 13 12 10 8 18 25 29 15 18 17
8 8 9 9 9 9 9 10 12 14 19 21 13 11 10 7 15 14 11 10 8 13 10 14 16 16 14 14 12 12 14 13 15 15 16 13 12 10 8 13 18 18 20
8 9 9 9 9 9 9 10 11 13 17 22 14 10 11 7 12 16 12 11 6 8 14 12 15 17 17 16 15 16 16 15 13 14 12 13 12 13 13 11 9 12 14
8 9 9 8 8 8 8 9 10 10 12 19 15 11 10 8 7 13 14 13 12 8 11 16 11 11 12 13 13 13 13 14 14 13 14 15 13 14 15 12 12 10 12
9 9 8 8 8 9 8 8 9 10 11 14 19 12 10 9 7 9 13 12 14 16 14 12 15 10 10 10 12 11 11 11 12 13 13 13 12 13 14 13 12 11 12
9 9 8 8 8 9 8 8 8 8 10 12 18 17 10 10 10 7 8 12 15 14 19 17 10 11 12 10 11 12 11 9 10 12 12 13 15 16 13 12 12 13 13
9 9 9 9 9 9 9 8 7 8 9 10 13 19 15 10 11 10 7 8 10 14 15 13 15 13 12 12 11 13 10 9 7 6 7 9 11 15 18 18 16 14 13
9 9 9 10 9 9 9 8 7 7 8 9 10 11 16 16 12 10 12 11 8 8 10 13 14 15 13 12 11 11 13 11 10 10 11 11 10 11 12 13 14 16 16
8 8 8 8 8 9 9 9 8 8 8 8 9 11 12 12 19 18 16 12 11 10 8 7 10 14 15 16 13 11 10 10 11 13 16 15 12 12 13 13 15 14 14
7 7 7 7 7 7 8 9 9 9 9 8 8 9 9 10 12 11 15 16 16 14 12 11 9 9 10 12 12 15 14 10 10 12 13 11 12 12 12 12 14 17 16
8 9 10 9 10 9 8 7 7 8 9 9 8 8 8 9 10 10 11 10 11 13 16 16 15 12 11 9 11 10 11 12 11 10 10 12 11 10 8 9 9 11 11
8 9 9 9 10 10 10 10 9 7 7 9 10 9 8 8 8 8 8 8 10 11 12 12 15 17 16 14 13 10 10 10 10 10 9 9 8 7 6 7 9 10 10
8 9 8 8 9 10 9 10 10 10 9 8 8 10 10 9 8 8 8 9 9 8 8 10 12 13 14 17 18 16 14 13 11 10 8 9 9 10 10 10 11 10 8
7 8 6 7 7 8 8 9 10 11 11 10 9 8 8 10 10 9 8 8 7 7 8 8 8 8 9 11 12 13 14 16 17 17 16 14 14 12 11 10 9 9 8
5 7 6 6 6 7 7 7 8 9 10 11 11 10 9 8 8 10 10 9 9 8 8 8 7 7 7 8 8 8 8 9 10 11 11 12 13 14 15 15 15 15 15
Height
3080 3073 3066 3061 3055 3049 3043 3036 3029 3022 3016 3010 3004 2998 2992 2985 2978 2972 2965 2958 2952 2945 2939 2933 2927 2922 2917 2912 2907 2902 2899 2895 2893 2893 2892 2895 2899 2904 2910 2917 2924 2931 2937
3076 3069 3064 3058 3052 3046 3040 3034 3027 3021 3014 3009 3003 2997 2990 2984 2976 2969 2962 2955 2948 2941 2935 2929 2924 2919 2913 2908 2904 2900 2896 2893 2890 2888 2888 2891 2893 2898 2904 2912 2919 2925 2932
3073 3067 3061 3056 3050 3045 3039 3032 3026 3019 3014 3009 3003 2996 2989 2982 2974 2966 2958 2950 2943 2937 2931 2925 2920 2915 2910 2905 2901 2897 2894 2891 2888 2886 2886 2888 2891 2894 2899 2908 2915 2921 2928
3071 3064 3059 3054 3049 3043 3037 3031 3025 3018 3013 3008 3002 2995 2988 2980 2971 2962 2954 2946 2939 2932 2927 2922 2916 2911 2907 2902 2899 2895 2892 2890 2887 2885 2885 2887 2889 2892 2897 2906 2914 2914 2923
3068 3063 3058 3053 3047 3042 3036 3030 3024 3018 3013 3007 3001 2995 2987 2978 2969 2959 2951 2943 2936 2930 2925 2920 2915 2910 2905 2901 2897 2894 2892 2889 2886 2885 2884 2886 2888 2889 2897 2903 2909 2913 2920
3067 3061 3057 3051 3046 3041 3036 3029 3023 3017 3012 3007 3001 2994 2986 2977 2968 2959 2950 2943 2935 2929 2924 2919 2914 2909 2905 2900 2896 2894 2891 2889 2886 2885 2884 2885 2888 2889 2895 2902 2905 2913 2918
3065 3061 3056 3051 3046 3040 3034 3028 3023 3017 3012 3006 3000 2994 2986 2978 2969 2960 2951 2943 2936 2930 2924 2919 2915 2910 2906 2901 2897 2894 2891 2889 2887 2886 2885 2885 2887 2889 2894 2899 2903 2912 2913
3063 3059 3055 3050 3045 3040 3034 3028 3022 3017 3011 3006 3000 2993 2986 2979 2970 2962 2954 2946 2938 2932 2926 2921 2916 2912 2907 2903 2899 2895 2893 2890 2889 2887 2886 2885 2887 2888 2892 2898 2901 2905 2912
3062 3058 3055 3050 3046 3040 3034 3028 3022 3016 3011 3005 2999 2993 2987 2980 2971 2964 2957 2949 2942 2935 2929 2924 2919 2914 2910 2906 2902 2898 2895 2893 2891 2889 2888 2886 2887 2889 2892 2897 2900 2906 2909
3062 3058 3055 3050 3045 3040 3034 3027 3021 3015 3010 3005 2999 2993 2987 2981 2973 2966 2959 2953 2946 2939 2933 2928 2923 2918 2913 2909 2906 2902 2899 2896 2894 2892 2890 2891 2890 2891 2892 2898 2902 2905 2912
3062 3058 3054 3050 3045 3040 3034 3027 3022 3016 3010 3005 3000 2995 2989 2982 2975 2968 2962 2956 2948 2942 2937 2932 2927 2922 2917 2913 2910 2907 2904 2901 2899 2897 2896 2895 2894 2894 2896 2898 2903 2907 2912
3062 3059 3055 3050 3046 3041 3035 3029 3023 3017 3011 3007 3002 2997 2991 2984 2977 2970 2964 2958 2951 2945 2940 2935 2930 2926 2922 2918 2914 2911 2908 2906 2904 2902 2901 2900 2900 2900 2901 2902 2903 2906 2909
3061 3059 3055 3051 3047 3042 3037 3031 3025 3019 3013 3008 3003 2999 2993 2987 2980 2973 2966 2960 2954 2948 2944 2939 2934 2930 2927 2923 2920 2917 2914 2912 2910 2909 2907 2906 2906 2906 2905 2906 2907 2908 2912
3060 3059 3055 3052 3048 3044 3039 3033 3028 3022 3015 3009 3005 3000 2996 2991 2984 2977 2970 2965 2960 2955 2950 2946 2941 2936 2932 2929 2926 2923 2920 2918 2916 2914 2913 2912 2912 2913 2914 2914 2915 2916 2918
3060 3058 3055 3053 3049 3045 3041 3036 3030 3023 3016 3010 3006 3002 2998 2992 2985 2979 2975 2969 2965 2961 2957 2953 2949 2944 2940 2936 2933 2929 2927 2924 2922 2920 2919 2918 2918 2918 2919 2919 2920 2922 2925
3061 3058 3055 3053 3050 3047 3043 3038 3032 3025 3019 3013 3009 3005 3000 2995 2991 2986 2980 2975 2971 2967 2963 2959 2954 2950 2946 2943 2939 2936 2934 2931 2928 2926 2925 2924 2923 2924 2924 2925 2926 2928 2930
3061 3058 3056 3054 3051 3049 3045 3040 3035 3029 3023 3018 3014 3009 3004 2999 2995 2991 2986 2981 2977 2973 2969 2963 2959 2955 2952 2948 2946 2943 2940 2938 2936 2934 2932 2930 2928 2928 2928 2929 2929 2930 2932
3063 3061 3058 3056 3053 3051 3047 3042 3037 3033 3028 3024 3019 3013 3008 3004 3000 2996 2992 2988 2985 2980 2974 2969 2964 2961 2958 2955 2952 2949 2947 2945 2943 2941 2939 2937 2935 2934 2933 2932 2932 2933 2934
3065 3063 3061 3058 3055 3053 3049 3045 3041 3036 3032 3027 3022 3018 3013 3008 3004 3001 2997 2994 2989 2984 2980 2975 2971 2967 2964 2961 2958 2956 2954 2952 2949 2947 2946 2944 2942 2940 2938 2937 2937 2937 2937
3066 3064 3063 3061 3058 3055 3052 3048 3044 3040 3037 3034 3029 3024 3019 3016 3013 3007 3003 2998 2994 2989 2985 2981 2978 2974 2971 2968 2965 2963 2961 2959 2957 2954 2952 2950 2949 2948 2946 2945 2944 2943 2943
3067 3066 3065 3063 3060 3058 3055 3052 3048 3044 3042 3038 3034 3030 3025 3021 3017 3013 3008 3004 2999 2995 2991 2987 2984 2981 2978 2975 2972 2970 2967 2965 2964 2961 2960 2958 2956 2955 2953 2952 2951 2950 2949
3068 3067 3066 3064 3062 3060 3057 3054 3051 3048 3045 3042 3038 3034 3030 3027 3023 3019 3014 3010 3006 3001 2998 2994 2991 2988 2985 2982 2979 2977 2974 2972 2970 2968 2966 2964 2963 2962 2960 2960 2959 2958 2957
3068 3068 3067 3066 3064 3062 3059 3056 3053 3051 3048 3045 3042 3039 3035 3032 3029 3025 3021 3017 3013 3009 3005 3001 2998 2994 2991 2989 2986 2984 2981 2979 2977 2974 2972 2971 2970 2969 2967 2966 2965 2964 2964
3069 3069 3068 3067 3066 3064 3061 3058 3056 3053 3051 3049 3046 3043 3039 3036 3033 3029 3026 3022 3019 3016 3012 3009 3005 3002 2998 2995 2993 2990 2987 2985 2982 2981 2978 2977 2976 2974 2973 2972 2971 2970 2969
3070 3069 3069 3068 3067 3065 3062 3060 3058 3055 3053 3051 3048 3046 3043 3040 3037 3034 3030 3027 3024 3022 3019 3016 3012 3009 3006 3003 3000 2997 2994 2991 2989 2987 2984 2983 2981 2980 2978 2977 2975 2974 2973
3070 3070 3070 3068 3067 3066 3064 3062 3060 3057 3055 3053 3051 3048 3046 3043 3040 3037 3034 3031 3029 3026 3023 3021 3018 3015 3012 3010 3007 3004 3001 2998 2996 2994 2991 2990 2988 2986 2984 2982 2980 2979 2978